TimeMDT,TemperatureF,Dew PointF,Humidity,Sea Level PressureIn,VisibilityMPH,Wind Direction,Wind SpeedMPH,Gust SpeedMPH,PrecipitationIn,Events,Conditions,WindDirDegrees,DateUTC
12:55 AM,66.2,46.4,49,30.12,10.0,West,5.8,-,N/A,,Clear,270,2013-07-09 06:55:00
1:15 AM,62.6,44.6,52,30.12,10.0,Calm,Calm,-,N/A,,Clear,0,2013-07-09 07:15:00
1:35 AM,62.6,44.6,52,30.13,10.0,Calm,Calm,-,N/A,,Clear,0,2013-07-09 07:35:00
1:55 AM,60.8,44.6,55,30.13,10.0,SSE,4.6,-,N/A,,Clear,160,2013-07-09 07:55:00
2:15 AM,60.8,44.6,55,30.14,10.0,Calm,Calm,-,N/A,,Clear,0,2013-07-09 08:15:00
2:35 AM,60.8,44.6,55,30.14,10.0,South,3.5,-,N/A,,Clear,180,2013-07-09 08:35:00
2:55 AM,59.0,44.6,59,30.14,10.0,Calm,Calm,-,N/A,,Clear,0,2013-07-09 08:55:00
3:15 AM,57.2,46.4,67,30.15,10.0,South,4.6,-,N/A,,Clear,170,2013-07-09 09:15:00
3:35 AM,59.0,44.6,59,30.15,10.0,SSE,5.8,-,N/A,,Clear,150,2013-07-09 09:35:00
3:55 AM,57.2,46.4,67,30.16,10.0,Calm,Calm,-,N/A,,Clear,0,2013-07-09 09:55:00
4:15 AM,57.2,44.6,63,30.16,10.0,Calm,Calm,-,N/A,,Clear,0,2013-07-09 10:15:00
4:35 AM,55.4,44.6,67,30.17,10.0,Calm,Calm,-,N/A,,Clear,0,2013-07-09 10:35:00
4:55 AM,55.4,42.8,63,30.17,10.0,Calm,Calm,-,N/A,,Clear,0,2013-07-09 10:55:00
5:35 AM,53.6,44.6,72,30.18,10.0,SSE,3.5,-,N/A,,Clear,150,2013-07-09 11:35:00
5:55 AM,51.8,44.6,76,30.19,10.0,Calm,Calm,-,N/A,,Clear,0,2013-07-09 11:55:00
6:15 AM,50.0,42.8,76,30.20,10.0,Calm,Calm,-,N/A,,Clear,0,2013-07-09 12:15:00
6:35 AM,51.8,44.6,76,30.21,10.0,Calm,Calm,-,N/A,,Clear,0,2013-07-09 12:35:00
7:15 AM,53.6,46.4,77,30.21,10.0,Calm,Calm,-,N/A,,Clear,0,2013-07-09 13:15:00
7:35 AM,55.4,46.4,72,30.22,10.0,Calm,Calm,-,N/A,,Clear,0,2013-07-09 13:35:00
7:55 AM,57.2,48.2,72,30.22,10.0,Calm,Calm,-,N/A,,Clear,0,2013-07-09 13:55:00
8:15 AM,57.2,48.2,72,30.22,10.0,Calm,Calm,-,N/A,,Clear,0,2013-07-09 14:15:00
8:35 AM,60.8,46.4,59,30.22,10.0,Calm,Calm,-,N/A,,Clear,0,2013-07-09 14:35:00
8:55 AM,62.6,48.2,59,30.22,10.0,Calm,Calm,-,N/A,,Clear,0,2013-07-09 14:55:00
9:15 AM,64.4,50.0,59,30.22,10.0,WSW,3.5,-,N/A,,Clear,240,2013-07-09 15:15:00
9:35 AM,64.4,50.0,59,30.22,10.0,Calm,Calm,-,N/A,,Clear,0,2013-07-09 15:35:00
9:55 AM,66.2,48.2,52,30.21,10.0,Calm,Calm,-,N/A,,Clear,0,2013-07-09 15:55:00
10:15 AM,69.8,48.2,46,30.21,10.0,NNW,4.6,-,N/A,,Clear,330,2013-07-09 16:15:00
10:35 AM,69.8,46.4,43,30.20,10.0,North,5.8,-,N/A,,Clear,350,2013-07-09 16:35:00
10:55 AM,71.6,44.6,38,30.20,10.0,Calm,Calm,-,N/A,,Clear,0,2013-07-09 16:55:00
11:15 AM,73.4,46.4,38,30.19,10.0,Calm,Calm,-,N/A,,Clear,0,2013-07-09 17:15:00
11:55 AM,75.2,46.4,36,30.18,10.0,North,5.8,-,N/A,,Clear,350,2013-07-09 17:55:00
12:15 PM,75.2,46.4,36,30.16,10.0,NW,4.6,-,N/A,,Clear,320,2013-07-09 18:15:00
1:35 PM,80.6,46.4,30,30.13,10.0,NNW,6.9,-,N/A,,Clear,340,2013-07-09 19:35:00
1:55 PM,82.4,46.4,28,30.12,10.0,NNW,10.4,-,N/A,,Clear,340,2013-07-09 19:55:00
2:15 PM,84.2,46.4,27,30.11,10.0,North,9.2,-,N/A,,Clear,360,2013-07-09 20:15:00
2:35 PM,84.2,44.6,25,30.10,10.0,NNW,8.1,-,N/A,,Clear,330,2013-07-09 20:35:00
2:55 PM,86.0,44.6,23,30.09,10.0,NNW,10.4,-,N/A,,Clear,330,2013-07-09 20:55:00
3:15 PM,87.8,42.8,21,30.09,10.0,North,8.1,-,N/A,,Clear,350,2013-07-09 21:15:00
3:35 PM,87.8,39.2,18,30.08,10.0,North,9.2,-,N/A,,Clear,350,2013-07-09 21:35:00
3:55 PM,87.8,41.0,19,30.07,10.0,North,6.9,-,N/A,,Clear,360,2013-07-09 21:55:00
4:15 PM,89.6,37.4,16,30.07,10.0,NNW,6.9,-,N/A,,Clear,340,2013-07-09 22:15:00
4:35 PM,89.6,39.2,17,30.06,10.0,NNW,6.9,-,N/A,,Clear,330,2013-07-09 22:35:00
4:55 PM,89.6,37.4,16,30.05,10.0,North,5.8,-,N/A,,Clear,10,2013-07-09 22:55:00
5:15 PM,91.4,35.6,14,30.04,10.0,North,5.8,-,N/A,,Clear,360,2013-07-09 23:15:00
5:35 PM,91.4,35.6,14,30.03,10.0,NE,8.1,-,N/A,,Clear,50,2013-07-09 23:35:00
5:55 PM,91.4,33.8,13,30.03,10.0,NNE,5.8,-,N/A,,Clear,30,2013-07-09 23:55:00
6:15 PM,91.4,37.4,15,30.02,10.0,North,6.9,-,N/A,,Clear,10,2013-07-10 00:15:00
6:35 PM,91.4,33.8,13,30.02,10.0,NW,4.6,-,N/A,,Clear,320,2013-07-10 00:35:00
6:55 PM,89.6,37.4,16,30.01,10.0,North,8.1,-,N/A,,Clear,10,2013-07-10 00:55:00
7:15 PM,86.0,44.6,23,30.01,10.0,NNW,4.6,-,N/A,,Clear,330,2013-07-10 01:15:00
7:35 PM,89.6,35.6,15,30.01,10.0,NNW,5.8,-,N/A,,Clear,330,2013-07-10 01:35:00
7:55 PM,86.0,46.4,25,30.01,10.0,NNW,3.5,-,N/A,,Clear,340,2013-07-10 01:55:00
8:15 PM,86.0,46.4,25,30.01,10.0,NW,3.5,-,N/A,,Clear,320,2013-07-10 02:15:00
8:35 PM,82.4,46.4,28,30.01,8.0,Calm,Calm,-,N/A,,Clear,0,2013-07-10 02:35:00
8:55 PM,77.0,44.6,32,30.02,10.0,Calm,Calm,-,N/A,,Clear,0,2013-07-10 02:55:00
9:15 PM,75.2,44.6,34,30.03,10.0,SSW,3.5,-,N/A,,Clear,200,2013-07-10 03:15:00
9:35 PM,73.4,44.6,36,30.04,10.0,SE,4.6,-,N/A,,Clear,130,2013-07-10 03:35:00
9:55 PM,73.4,39.2,29,30.05,10.0,ESE,5.8,-,N/A,,Clear,110,2013-07-10 03:55:00
10:15 PM,73.4,37.4,27,30.06,10.0,SE,5.8,-,N/A,,Clear,140,2013-07-10 04:15:00
10:35 PM,71.6,37.4,29,30.07,10.0,ESE,5.8,-,N/A,,Clear,120,2013-07-10 04:35:00
10:55 PM,68.0,41.0,37,30.08,10.0,South,4.6,-,N/A,,Clear,170,2013-07-10 04:55:00
11:15 PM,64.4,42.8,45,30.09,10.0,WSW,4.6,-,N/A,,Clear,250,2013-07-10 05:15:00
11:35 PM,66.2,39.2,37,30.09,10.0,ESE,3.5,-,N/A,,Clear,120,2013-07-10 05:35:00
11:55 PM,64.4,41.0,42,30.10,10.0,ESE,5.8,-,N/A,,Clear,120,2013-07-10 05:55:00